Location: Cape Cod Imaging Station
(41.7417°N, 70.1583°W)
Time: 22:42:42
(UTC-04:00)

Tiangong 2 - Visible Passes

Search period start: 24 June 2018 00:00
Search period end: 04 July 2018 00:00
Orbit: 385 x 396 km, 42.8° (Epoch: 24 June)

Date Brightness Start Highest point End Pass type
(mag) Time Alt. Az. Time Alt. Az. Time Alt. Az.
26 Jun 3.5 03:56:34 10° S 03:58:17 14° SE 03:59:59 10° ESE visible
28 Jun 2.6 03:38:41 20° S 03:39:44 24° SSE 03:42:23 10° E visible
29 Jun 3.7 02:43:32 13° ESE 02:43:32 13° ESE 02:44:13 10° ESE visible
29 Jun 1.2 04:15:51 12° WSW 04:18:45 62° SSE 04:21:56 10° E visible
30 Jun 1.7 03:20:39 37° S 03:21:11 41° SSE 03:24:13 10° E visible
01 Jul 3.5 02:25:25 16° ESE 02:25:25 16° ESE 02:26:23 10° E visible
01 Jul 1.0 03:57:44 15° WSW 04:00:19 89° SSE 04:03:32 10° E visible
02 Jul 1.0 03:02:29 64° S 03:02:39 66° SSE 03:05:50 10° E visible
02 Jul 1.4 04:36:22 10° W 04:39:34 70° N 04:42:46 10° E visible
03 Jul 3.5 02:07:14 17° E 02:07:14 17° E 02:08:06 10° E visible
03 Jul 1.2 03:39:33 17° W 03:41:50 74° N 03:45:02 10° E visible
